Regional Weather Roundup
Issued by NWS

Home | Current Version | Previous Version | Graphics & Text | Print | Product List | Glossary On
Versions: 1 2 3 4 5 6 7 8 9 10 11 12 13 14 15 16 17 18 19 20 21 22 23 24 25 26 27 28 29 30 31 32 33 34 35 36 37 38 39 40 41 42 43 44 45 46 47 48 49 50
000
ASUS43 KIND 020509
RWRIN

WEATHER ROUNDUP FOR INDIANA
NATIONAL WEATHER SERVICE INDIANAPOLIS IN
100 AM EDT SAT AUG 02 2014

NOTE: "FAIR" INDICATES FEW OR NO CLOUDS BELOW 12,000 FEET WITH NO
SIGNIFICANT WEATHER AND/OR OBSTRUCTIONS TO VISIBILITY.

* - STATION DOES NOT REPORT WEATHER SUCH AS PRECIPITATION OR FOG.

+ - STATION NOT QUALITY CONTROLLED BY THE NATIONAL WEATHER SERVICE.
    USE DATA WITH CAUTION...ESPECIALLY DEWPOINT AND RELATIVE
    HUMIDITY OBSERVATIONS.

INZ001>003-010>013-019-020-020600-
NORTHWEST INDIANA

CITY           SKY/WX    TMP DP  RH WIND       PRES   REMARKS
GARY /AIRPORT/ MOCLDY    65  61  87 S3        30.11F
KNOX *+          N/A     58  56  94 CALM      30.12S VSB 1/4
LA PORTE +     MOCLDY    57  56  94 CALM      30.13S
MICHIGAN CITY+ MOCLDY    57  55  94 CALM      30.11F
MONTICELLO +   MOCLDY    64  62  94 NW3       30.12R
RENSSELAER +   MOCLDY    61  61 100 CALM      30.13S FOG
VALPARAISO     MOCLDY    59  57  93 CALM      30.12F

$$

LMZ046-743>745-020600-
SOUTHERN LAKE MICHIGAN

STATION/POSITION TIME  TEMP WIND        PRES
                       AIR  DIR/SP/G
                 (UTC) (F)  (DEG/KT/KT) (MB)
BURNS HARBOR     0500   68  190/  6/  6   N/A
MICHIGAN CITY    0500   67  180/  4/  5   N/A

$$

INZ004-005-014>016-021>024-020600-
NORTH CENTRAL INDIANA

CITY           SKY/WX    TMP DP  RH WIND       PRES   REMARKS
GOSHEN         CLEAR     61  59  93 CALM      30.11S FOG
LOGANSPORT +   MOCLDY    61  61 100 N3        30.12S
PERU/GRISSOM   MOCLDY    67  65  92 N5        30.11S
ROCHESTER +    PTCLDY    64  61  88 CALM      30.12R
SOUTH BEND     PTCLDY    63  57  81 CALM      30.12S
WARSAW +       CLEAR     59  57  94 W3        30.12R

$$

INZ006>009-017-018-025>027-020600-
NORTHEAST INDIANA

CITY           SKY/WX    TMP DP  RH WIND       PRES   REMARKS
ANGOLA *+      MOCLDY    61  50  67 CALM      30.11S VSB 1/4
AUBURN +       PTCLDY    66  59  77 CALM      30.12R
FORT WAYNE     MOCLDY    68  58  70 E21       30.13R THUNDER
HUNTINGTON +   PTCLDY    64  59  84 CALM      30.12R

$$

INZ028-029-035-036-043>045-051>053-020600-
WEST CENTRAL INDIANA

CITY           SKY/WX    TMP DP  RH WIND       PRES   REMARKS
GREENCASTLE +  CLOUDY    63  59  88 CALM      30.12S
LAFAYETTE      CLOUDY    63  62  97 W5        30.12R
TERRE HAUTE    CLOUDY    66  63  90 N8        30.10F

$$

INZ030>032-037>040-046>048-054>057-064-065-020600-
CENTRAL INDIANA

CITY           SKY/WX    TMP DP  RH WIND       PRES   REMARKS
CP ATTERBURY + CLOUDY    63  59  88 CALM      30.10S
INDIANAPOLIS   CLOUDY    66  61  84 CALM      30.10R
-EAGLE CREEK   CLOUDY    68  61  78 NW3       30.10R
KOKOMO *+      CLOUDY    66  61  82 N6        30.11S
MARION +         N/A     63  60  88 CALM      30.11S
MT COMFORT *+  CLOUDY    66  66 100 N6        30.10S
SHELBYVILLE    CLOUDY    67  62  84 CALM      30.09R
ZIONSVILLE +   CLOUDY    66  61  84 NW3       30.12R

$$

INZ033-034-041-042-049-050-058-059-020600-
EAST CENTRAL INDIANA

CITY           SKY/WX    TMP DP  RH WIND       PRES   REMARKS
MUNCIE         CLOUDY    65  61  87 CALM      30.11R

$$

INZ060-061-067>069-081>083-085>088-020600-
SOUTHWEST INDIANA

CITY           SKY/WX    TMP DP  RH WIND       PRES   REMARKS
EVANSVILLE     CLOUDY    72  62  71 NE8       30.07S
WASHINGTON +   CLOUDY    68  65  89 CALM      30.08S

$$

INZ062-063-066-070>080-084-089>092-020600-
SOUTH CENTRAL AND SOUTHEAST INDIANA

CITY           SKY/WX    TMP DP  RH WIND       PRES   REMARKS
BEDFORD +      MOCLDY    66  61  82 CALM      30.09
BLOOMINGTON    CLOUDY    66  62  87 N5        30.10S
SEYMOUR +      MOCLDY    64  48  55 N5        30.08

$$



USA.gov is the U.S. government's official web portal to all federal, state and local government web resources and services.